Weather History for Novato, CA

Change the Weather History Date:

Monday, October 7, 2013

  Actual Average (KAPC) Record (KAPC)
Temperature  
Mean Temperature 63 °F 60 °F  
Max Temperature 84 °F 76 °F 91 °F (2002)
Min Temperature 42 °F 45 °F 37 °F (2009)
Degree Days  
Heating Degree Days 2    
Month to date heating degree days  
Since 1 July heating degree days  
Cooling Degree Days 0    
Month to date cooling degree days  
Year to date cooling degree days  
Growing Degree Days 13 (Base 50)    
Moisture  
Dew Point 35 °F    
Average Humidity 43    
Maximum Humidity 76    
Minimum Humidity 9    
Precipitation  
Precipitation 0.00 in - 0.58 in (1981)
Month to date precipitation  
Year to date precipitation  
Since 1 July precipitation  
Sea Level Pressure  
Sea Level Pressure 29.94 in    
Wind  
Wind Speed 2 mph (East)    
Max Wind Speed 14 mph    
Max Gust Speed 17 mph    
Visibility 10 miles    
Events Rain    
T = Trace of Precipitation, MM = Missing Value Source: NWS Daily Summary

Daily Weather History Graph

Daily Weather History Graph

Search for Another Location

Airport:

Trip Planner

Search our weather history database for the weather conditions in past years. The results will help you decide how hot, cold, wet, or windy it might be!

Date:

Astronomy

Oct. 07, 2013 Rise Set
Actual Time 7:11 AM PDT 6:43 PM PDT
Civil Twilight 6:45 AM PDT 7:09 PM PDT
Nautical Twilight 6:14 AM PDT 7:40 PM PDT
Astronomical Twilight 5:44 AM PDT 8:10 PM PDT
Moon 10:04 AM PDT (10/7) 8:36 PM PDT (10/7)
Length of Visible Light 12h 24m
Length of Day
11h 31m
Waxing Crescent, 9% of the Moon is Illuminated
Oct 7
Waxing Crescent
Oct 11
First Quarter
Oct 18
Full
Oct 26
Last Quarter
Nov 3
New

Hourly Weather History & Observations

Time (PDT) Temp. Windchill Dew Point Humidity Pressure Visibility Wind Dir Wind Speed Gust Speed Precip Events Conditions
12:15 AM 55.4 °F - 35.6 °F 47% 30.00 in 10.0 mi Calm Calm - N/A   Clear
12:35 AM 57.2 °F - 33.8 °F 41% 30.00 in 10.0 mi Calm Calm - N/A   Clear
12:55 AM 55.4 °F - 33.8 °F 44% 30.00 in 10.0 mi Calm Calm - N/A   Clear
1:15 AM 55.4 °F - 35.6 °F 47% 30.00 in 10.0 mi Calm Calm - N/A   Clear
1:35 AM 55.4 °F - 35.6 °F 47% 30.00 in 10.0 mi Calm Calm - N/A   Clear
1:55 AM 53.6 °F - 35.6 °F 51% 30.00 in 10.0 mi Calm Calm - N/A   Clear
2:15 AM 55.4 °F - 35.6 °F 47% 30.00 in 10.0 mi Calm Calm - N/A   Clear
2:35 AM 53.6 °F - 33.8 °F 47% 29.99 in 10.0 mi WNW 3.5 mph - N/A   Clear
2:55 AM 53.6 °F - 35.6 °F 51% 29.99 in 10.0 mi Calm Calm - N/A   Clear
3:15 AM 48.2 °F - 33.8 °F 58% 29.98 in 10.0 mi Calm Calm - N/A   Clear
3:35 AM 50.0 °F - 35.6 °F 58% 29.98 in 10.0 mi Calm Calm - N/A   Clear
3:55 AM 48.2 °F - 33.8 °F 58% 29.98 in 10.0 mi North 4.6 mph - N/A   Clear
4:15 AM 48.2 °F - 33.8 °F 58% 29.98 in 10.0 mi Calm Calm - N/A   Clear
4:35 AM 48.2 °F - 35.6 °F 62% 29.98 in 10.0 mi Calm Calm - N/A   Clear
4:55 AM 46.4 °F - 35.6 °F 66% 29.97 in 10.0 mi Calm Calm - N/A   Clear
5:15 AM 46.4 °F - 35.6 °F 66% 29.97 in 10.0 mi Calm Calm - N/A   Clear
5:35 AM 48.2 °F - 35.6 °F 62% 29.97 in 10.0 mi Calm Calm - N/A   Clear
5:55 AM 46.4 °F - 35.6 °F 66% 29.97 in 10.0 mi Calm Calm - N/A   Clear
6:15 AM 48.2 °F - 35.6 °F 62% 29.98 in 10.0 mi Calm Calm - N/A   Clear
6:35 AM 46.4 °F - 35.6 °F 66% 29.98 in 10.0 mi Calm Calm - N/A   Clear
6:55 AM 46.4 °F - 35.6 °F 66% 29.98 in 10.0 mi Calm Calm - N/A   Clear
7:15 AM 46.4 °F 44.3 °F 35.6 °F 66% 29.98 in 10.0 mi NW 4.6 mph - N/A   Clear
7:35 AM 42.8 °F 40.1 °F 32.0 °F 66% 29.99 in 10.0 mi North 4.6 mph - N/A   Clear
7:55 AM 48.2 °F - 33.8 °F 58% 30.00 in 10.0 mi Calm Calm - N/A   Clear
8:15 AM 48.2 °F - 35.6 °F 62% 30.00 in 10.0 mi Calm Calm - N/A   Clear
8:35 AM 51.8 °F - 37.4 °F 58% 30.00 in 10.0 mi North 3.5 mph - N/A   Clear
8:55 AM 53.6 °F - 37.4 °F 54% 30.00 in 10.0 mi Calm Calm - N/A   Clear
9:15 AM 55.4 °F - 37.4 °F 51% 30.00 in 10.0 mi Calm Calm - N/A   Clear
9:35 AM 59.0 °F - 37.4 °F 45% 30.00 in 10.0 mi Calm Calm - N/A   Clear
9:55 AM 62.6 °F - 37.4 °F 39% 30.00 in 10.0 mi Calm Calm - N/A   Clear
10:15 AM 64.4 °F - 37.4 °F 37% 30.00 in 10.0 mi Calm Calm - N/A   Clear
10:35 AM 66.2 °F - 35.6 °F 32% 30.00 in 10.0 mi Calm Calm - N/A   Clear
10:55 AM 68.0 °F - 35.6 °F 30% 29.99 in 10.0 mi North 3.5 mph - N/A   Clear
11:15 AM 71.6 °F - 32.0 °F 23% 29.98 in 10.0 mi Calm Calm - N/A   Clear
11:35 AM 73.4 °F - 33.8 °F 23% 29.97 in 10.0 mi Calm Calm - N/A   Clear
11:55 AM 75.2 °F - 33.8 °F 22% 29.97 in 10.0 mi NE 3.5 mph - N/A   Clear
12:15 PM 77.0 °F - 32.0 °F 19% 29.96 in 10.0 mi NE 3.5 mph - N/A Rain Light Rain
12:35 PM 80.6 °F - 32.0 °F 17% 29.95 in 10.0 mi SSE 5.8 mph - N/A Rain Light Rain
12:55 PM 80.6 °F - 35.6 °F 20% 29.94 in 10.0 mi ESE 6.9 mph - N/A Rain Light Rain
1:15 PM 80.6 °F - 33.8 °F 18% 29.94 in 10.0 mi SSE 4.6 mph - N/A Rain Light Rain
1:35 PM 80.6 °F - 32.0 °F 17% 29.93 in 10.0 mi SSE 5.8 mph - N/A Rain Light Rain
1:55 PM 82.4 °F - 32.0 °F 16% 29.92 in 10.0 mi SSE 6.9 mph - N/A Rain Light Rain
2:15 PM 82.4 °F - 32.0 °F 16% 29.91 in 10.0 mi SSW 6.9 mph - N/A Rain Light Rain
2:35 PM 84.2 °F - 21.2 °F 10% 29.91 in 10.0 mi NW 8.1 mph - N/A   Clear
2:55 PM 84.2 °F - 21.2 °F 10% 29.90 in 10.0 mi NW 9.2 mph - N/A   Clear
3:15 PM 84.2 °F - 19.4 °F 9% 29.90 in 10.0 mi NW 9.2 mph - N/A   Clear
3:35 PM 84.2 °F - 19.4 °F 9% 29.90 in 10.0 mi WSW 10.4 mph - N/A   Clear
3:55 PM 84.2 °F - 23.0 °F 11% 29.89 in 10.0 mi West 10.4 mph 16.1 mph N/A   Clear
4:15 PM 82.4 °F - 26.6 °F 13% 29.89 in 10.0 mi WSW 13.8 mph 17.3 mph N/A   Clear
4:35 PM 80.6 °F - 26.6 °F 14% 29.88 in 10.0 mi West 10.4 mph - N/A   Clear
4:55 PM 80.6 °F - 26.6 °F 14% 29.88 in 10.0 mi WSW 9.2 mph - N/A   Clear
5:15 PM 78.8 °F - 28.4 °F 16% 29.88 in 10.0 mi Calm Calm - N/A   Clear
5:35 PM 77.0 °F - 37.4 °F 24% 29.87 in 10.0 mi SSE 3.5 mph - N/A   Clear
5:55 PM 75.2 °F - 37.4 °F 25% 29.87 in 10.0 mi SSW 6.9 mph - N/A   Clear
6:15 PM 73.4 °F - 39.2 °F 29% 29.87 in 10.0 mi South 5.8 mph - N/A   Clear
6:35 PM 69.8 °F - 41.0 °F 35% 29.87 in 10.0 mi South 4.6 mph - N/A   Clear
6:55 PM 68.0 °F - 41.0 °F 37% 29.87 in 10.0 mi SE 4.6 mph - N/A   Clear
7:15 PM 66.2 °F - 39.2 °F 37% 29.87 in 10.0 mi East 5.8 mph - N/A   Clear
7:35 PM 64.4 °F - 39.2 °F 40% 29.88 in 10.0 mi ESE 6.9 mph - N/A   Clear
7:55 PM 64.4 °F - 41.0 °F 42% 29.88 in 10.0 mi SE 4.6 mph - N/A   Clear
8:15 PM 62.6 °F - 41.0 °F 45% 29.88 in 10.0 mi East 5.8 mph - N/A   Clear
8:35 PM 57.2 °F - 41.0 °F 55% 29.88 in 10.0 mi NE 3.5 mph - N/A   Clear
8:55 PM 55.4 °F - 42.8 °F 63% 29.88 in 10.0 mi Calm Calm - N/A   Clear
9:15 PM 55.4 °F - 44.6 °F 67% 29.89 in 10.0 mi North 4.6 mph - N/A   Clear
9:35 PM 55.4 °F - 44.6 °F 67% 29.89 in 10.0 mi NNE 3.5 mph - N/A   Clear
9:55 PM 55.4 °F - 44.6 °F 67% 29.89 in 10.0 mi NE 4.6 mph - N/A   Clear
10:15 PM 55.4 °F - 44.6 °F 67% 29.89 in 10.0 mi Calm Calm - N/A   Clear
10:35 PM 55.4 °F - 44.6 °F 67% 29.90 in 10.0 mi Calm Calm - N/A   Clear
10:55 PM 55.4 °F - 44.6 °F 67% 29.90 in 10.0 mi Calm Calm - N/A   Clear
11:15 PM 53.6 °F - 44.6 °F 72% 29.90 in 10.0 mi Calm Calm - N/A   Clear
11:35 PM 51.8 °F - 44.6 °F 76% 29.90 in 10.0 mi Calm Calm - N/A   Clear
11:55 PM 53.6 °F - 44.6 °F 72% 29.90 in 10.0 mi Calm Calm - N/A   Clear